Stations météo

réclame
Mon MeteoGroup
Bonifati, Italie (16337): Température de l'air & dewpoint: 10.12.2017 16:00:00 - 16.12.2017 16:00:00 (CET)Bonifati, Italie (16337): Vitesse du vent: 10.12.2017 16:00:00 - 16.12.2017 16:00:00 (CET)Bonifati, Italie (16337): Direction du vent: 10.12.2017 16:00:00 - 16.12.2017 16:00:00 (CET)Bonifati, Italie (16337): reduced air pressure: 10.12.2017 16:00:00 - 16.12.2017 16:00:00 (CET)Bonifati, Italie (16337): visibility: 10.12.2017 16:00:00 - 16.12.2017 16:00:00 (CET)
Date & Time tt [°C] td [°C] ff [km/h] ff [knt] dd ppp [hPa] vv [km]
16.12.2017 16:00:00 - - - - - - -
16.12.2017 15:00:00 - - - - - - -
16.12.2017 14:00:00 - - - - - - -
16.12.2017 13:00:00 11,8 6,5 16 9 WNW 1008,2 15
16.12.2017 12:00:00 - - - - - - -
16.12.2017 11:00:00 - - - - - - -
16.12.2017 10:00:00 10,4 6,0 9 5 WNW 1008,4 12
16.12.2017 09:00:00 - - - - - - -
16.12.2017 08:00:00 - - - - - - -
16.12.2017 07:00:00 10,0 8,3 16 9 WNW 1007,6 12
16.12.2017 06:00:00 - - - - - - -
16.12.2017 05:00:00 - - - - - - -
16.12.2017 04:00:00 - - - - - - -
16.12.2017 03:00:00 - - - - - - -
16.12.2017 02:00:00 - - - - - - -
16.12.2017 01:00:00 - - - - - - -
16.12.2017 00:00:00 - - - - - - -
15.12.2017 23:00:00 - - - - - - -
15.12.2017 22:00:00 - - - - - - -
15.12.2017 21:00:00 - - - - - - -
15.12.2017 20:00:00 - - - - - - -
15.12.2017 19:00:00 11,0 2,6 22 12 S 1008,4 20
15.12.2017 18:00:00 - - - - - - -
15.12.2017 17:00:00 - - - - - - -
15.12.2017 16:00:00 11,2 5,5 18 10 SSE 1009,6 18
15.12.2017 15:00:00 - - - - - - -
15.12.2017 14:00:00 - - - - - - -
15.12.2017 13:00:00 10,4 6,9 26 14 S 1011,2 15
15.12.2017 12:00:00 - - - - - - -
15.12.2017 11:00:00 - - - - - - -
15.12.2017 10:00:00 10,0 7,6 21 11 SSW 1014,1 15
15.12.2017 09:00:00 - - - - - - -
15.12.2017 08:00:00 - - - - - - -
15.12.2017 07:00:00 10,0 7,1 22 12 SSW 1014,4 15
15.12.2017 06:00:00 - - - - - - -
15.12.2017 05:00:00 - - - - - - -
15.12.2017 04:00:00 - - - - - - -
15.12.2017 03:00:00 - - - - - - -
15.12.2017 02:00:00 - - - - - - -
15.12.2017 01:00:00 - - - - - - -
15.12.2017 00:00:00 - - - - - - -
14.12.2017 23:00:00 - - - - - - -
14.12.2017 22:00:00 - - - - - - -
14.12.2017 21:00:00 - - - - - - -
14.12.2017 20:00:00 - - - - - - -
14.12.2017 19:00:00 9,2 6,5 21 11 SSW 1017,8 12
14.12.2017 18:00:00 - - - - - - -
14.12.2017 17:00:00 - - - - - - -
14.12.2017 16:00:00 8,6 5,2 16 9 S 1019,0 12
14.12.2017 15:00:00 - - - - - - -
14.12.2017 14:00:00 - - - - - - -
14.12.2017 13:00:00 10,4 6,4 24 13 WSW 1020,1 15
14.12.2017 12:00:00 - - - - - - -
14.12.2017 11:00:00 - - - - - - -
14.12.2017 10:00:00 9,4 3,2 28 15 WSW 1020,5 15
14.12.2017 09:00:00 - - - - - - -
14.12.2017 08:00:00 - - - - - - -
14.12.2017 07:00:00 8,8 3,6 24 13 W 1020,4 12
14.12.2017 06:00:00 - - - - - - -
14.12.2017 05:00:00 - - - - - - -
14.12.2017 04:00:00 - - - - - - -
14.12.2017 03:00:00 - - - - - - -
14.12.2017 02:00:00 - - - - - - -
14.12.2017 01:00:00 - - - - - - -
14.12.2017 00:00:00 - - - - - - -
13.12.2017 23:00:00 - - - - - - -
13.12.2017 22:00:00 - - - - - - -
13.12.2017 21:00:00 - - - - - - -
13.12.2017 20:00:00 - - - - - - -
13.12.2017 19:00:00 10,4 7,8 24 13 WNW 1019,8 10
13.12.2017 18:00:00 - - - - - - -
13.12.2017 17:00:00 - - - - - - -
13.12.2017 16:00:00 12,4 10,5 21 11 SSW 1019,5 12
13.12.2017 15:00:00 - - - - - - -
13.12.2017 14:00:00 - - - - - - -
13.12.2017 13:00:00 15,4 11,2 21 11 SW 1020,0 15
13.12.2017 12:00:00 - - - - - - -
13.12.2017 11:00:00 - - - - - - -
13.12.2017 10:00:00 12,4 10,3 5 3 SW 1020,9 16
13.12.2017 09:00:00 - - - - - - -
13.12.2017 08:00:00 - - - - - - -
13.12.2017 07:00:00 12,2 8,1 5 3 S 1020,1 16
13.12.2017 06:00:00 - - - - - - -
13.12.2017 05:00:00 - - - - - - -
13.12.2017 04:00:00 - - - - - - -
13.12.2017 03:00:00 - - - - - - -
13.12.2017 02:00:00 - - - - - - -
13.12.2017 01:00:00 - - - - - - -
13.12.2017 00:00:00 - - - - - - -
12.12.2017 23:00:00 - - - - - - -
12.12.2017 22:00:00 - - - - - - -
12.12.2017 21:00:00 - - - - - - -
12.12.2017 20:00:00 - - - - - - -
12.12.2017 19:00:00 13,0 9,6 22 12 SE 1018,2 18
12.12.2017 18:00:00 - - - - - - -
12.12.2017 17:00:00 - - - - - - -
12.12.2017 16:00:00 13,2 10,7 24 13 SE 1017,5 18
12.12.2017 15:00:00 - - - - - - -
12.12.2017 14:00:00 - - - - - - -
12.12.2017 13:00:00 14,2 10,8 26 14 SSE 1017,5 18
12.12.2017 12:00:00 - - - - - - -
12.12.2017 11:00:00 - - - - - - -
12.12.2017 10:00:00 12,0 8,5 37 20 SSE 1017,0 18
12.12.2017 09:00:00 - - - - - - -
12.12.2017 08:00:00 - - - - - - -
12.12.2017 07:00:00 12,0 9,7 35 19 SSE 1016,2 18
12.12.2017 06:00:00 - - - - - - -
12.12.2017 05:00:00 - - - - - - -
12.12.2017 04:00:00 - - - - - - -
12.12.2017 03:00:00 - - - - - - -
12.12.2017 02:00:00 - - - - - - -
12.12.2017 01:00:00 - - - - - - -
12.12.2017 00:00:00 - - - - - - -
11.12.2017 23:00:00 - - - - - - -
11.12.2017 22:00:00 - - - - - - -
11.12.2017 21:00:00 - - - - - - -
11.12.2017 20:00:00 - - - - - - -
11.12.2017 19:00:00 13,4 7,4 37 20 SSE 1014,1 18
11.12.2017 18:00:00 - - - - - - -
11.12.2017 17:00:00 - - - - - - -
11.12.2017 16:00:00 12,4 7,7 29 16 SSE 1013,7 18
11.12.2017 15:00:00 - - - - - - -
11.12.2017 14:00:00 - - - - - - -
11.12.2017 13:00:00 12,2 6,5 28 15 SSE 1014,8 18
11.12.2017 12:00:00 - - - - - - -
11.12.2017 11:00:00 - - - - - - -
11.12.2017 10:00:00 11,2 3,7 29 16 SE 1016,2 18
11.12.2017 09:00:00 - - - - - - -
11.12.2017 08:00:00 - - - - - - -
11.12.2017 07:00:00 8,2 4,4 24 13 S 1016,6 18
11.12.2017 06:00:00 - - - - - - -
11.12.2017 05:00:00 - - - - - - -
11.12.2017 04:00:00 - - - - - - -
11.12.2017 03:00:00 - - - - - - -
11.12.2017 02:00:00 - - - - - - -
11.12.2017 01:00:00 - - - - - - -
11.12.2017 00:00:00 - - - - - - -
10.12.2017 23:00:00 - - - - - - -
10.12.2017 22:00:00 - - - - - - -
10.12.2017 21:00:00 - - - - - - -
10.12.2017 20:00:00 - - - - - - -
10.12.2017 19:00:00 7,0 4,1 13 7 S 1018,9 18
10.12.2017 18:00:00 - - - - - - -
10.12.2017 17:00:00 - - - - - - -
10.12.2017 16:00:00 7,4 1,0 13 7 SW 1018,9 18

tt = Température de l'air
td = dewpoint
ff = Vitesse du vent
dd = Direction du vent
ppp = reduced air pressure
vv = visibility

stations d'obs. à proximité